Location: Pabrico
(37.5827°N, 122.0063°W)
Time: 06:10:46
(UTC+00:00)

Cosmos 1461 - Visible Passes

Search period start: 16 July 2024 00:00
Search period end: 26 July 2024 00:00
Orbit: 499 x 578 km, 65.0° (Epoch: 15 July)

Date Brightness Start Highest point End Pass type
(mag) Time Alt. Az. Time Alt. Az. Time Alt. Az.
16 Jul 4.4 09:58:32 10° NNW 10:00:22 27° NNW 10:00:22 27° NNW visible
17 Jul 5.7 08:14:46 10° NE 08:15:18 10° NE 08:15:44 10° NE visible
17 Jul 4.9 09:50:02 10° NW 09:51:08 18° NW 09:51:08 18° NW visible
18 Jul 5.6 08:05:16 10° NNE 08:06:38 12° NE 08:06:38 12° NE visible
18 Jul 5.3 09:41:32 10° NW 09:42:02 13° NW 09:42:02 13° NW visible
19 Jul 5.5 07:56:14 10° NNE 07:57:38 14° NE 07:57:38 14° NE visible
19 Jul 5.6 09:33:01 10° NW 09:33:02 10° NW 09:33:02 10° NW visible
20 Jul 5.5 07:47:18 10° N 07:48:42 15° NNE 07:48:42 15° NNE visible
21 Jul 5.4 07:38:26 10° N 07:39:49 16° NNE 07:39:49 16° NNE visible
22 Jul 5.3 07:29:34 10° N 07:30:59 17° NNE 07:30:59 17° NNE visible
23 Jul 5.3 07:20:44 10° N 07:22:10 19° N 07:22:10 19° N visible
24 Jul 5.2 07:11:54 10° NNW 07:13:23 20° N 07:13:23 20° N visible
25 Jul 5.1 07:03:04 10° NNW 07:04:37 21° N 07:04:37 21° N visible
